Flag for Germany Weather past 2 weeks in Kulmbach, Bavaria, Germany

Now
68 °F

Passing clouds.


Feels Like: 68 °F
Forecast: 54 / 81 °F
Wind: 7 mph from Southeast

Location: Hof Airport

Current Time: Aug 1, 2015 at 12:26:21 PM

Latest Report: Aug 1, 2015 at 11:50 AM


Visibility: N/A

Pressure: 30.01 "Hg

Humidity: 40%

Dew point: 43 °F

Location of KulmbachLocation

Historic Weather in Kulmbach — Graph

°F

Kulmbach temperature yesterday

Maximum temperature yesterday: 66 °F (at 3:50 PM)
Minimum temperature yesterday: 48 °F (at 6:50 AM)
Average temperature yesterday: 60 °F

Past Weeks' High & Low Weather Summary

 TemperatureHumidityPressure
High90 °F (Jul 17, 4:50 PM)94% (Jul 20, 4:50 AM)30.12 "Hg (Jul 20, 4:50 AM)
Low48 °F (Jul 30, 6:50 AM)24% (Jul 17, 4:50 PM)29.68 "Hg (Jul 27, 7:20 AM)
Average68 °F58%29.95 "Hg
* Reported Jul 17 11:20 AM — Aug 1 11:20 AM, Kulmbach, Weather by CustomWeather, © 2015

Note: Actual official high and low records may vary slightly from our data, if they occured in-between our weather recording intervals... More about our weather records

Advertising

Kulmbach weather history for previous 24 hours

 ConditionsComfort  
Time TempWeatherWind HumidityBarometerVisibility
11:20 AM
Sat, Aug 1
68 °FPassing clouds.7 mph43%30.01 "HgN/A
10:50 AM68 °FPassing clouds.9 mph38%30.01 "HgN/A
10:20 AM64 °FPassing clouds.9 mph46%30.01 "HgN/A
9:50 AM63 °FPassing clouds.6 mph49%30.01 "HgN/A
9:20 AM61 °FPassing clouds.5 mph55%30.01 "HgN/A
8:50 AM57 °FSunny.3 mph59%30.01 "Hg10 mi
7:50 PM
Fri, Jul 31
64 °FSunny.6 mph40%30.07 "Hg10 mi
7:20 PM66 °FPassing clouds.5 mph35%30.07 "HgN/A
6:50 PM66 °FSunny.3 mph35%30.07 "Hg10 mi
6:20 PM64 °FPassing clouds.5 mph37%30.07 "HgN/A
5:50 PM64 °FPassing clouds.5 mph40%30.07 "HgN/A
4:50 PM64 °FSunny.2 mph37%30.07 "Hg10 mi
4:20 PM64 °FSunny.No wind40%30.07 "Hg10 mi
3:50 PM66 °FPassing clouds.6 mph35%30.07 "HgN/A
3:20 PM64 °FSunny.2 mph37%30.09 "Hg10 mi
2:50 PM64 °FPassing clouds.6 mph40%30.09 "HgN/A
2:20 PM63 °FPassing clouds.6 mph42%30.09 "HgN/A
1:50 PM63 °FSunny.3 mph42%30.09 "Hg10 mi
1:20 PM61 °FPartly sunny.2 mph45%30.12 "HgN/A
12:50 PM61 °FPartly sunny.7 mph45%30.12 "HgN/A
12:20 PM63 °FPartly sunny.3 mph42%30.12 "HgN/A
Weather by CustomWeather, © 2015

See weather overviewHow to use our weather pages